Location: Euclid Heights
(41.5045°N, 81.5843°W)
Time: 17:48:28
(UTC+00:00)

Daily predictions for brighter satellites

Satellite Brightness Start Highest point End
(mag) Time Altitude Azimuth Time Altitude Azimuth Time Altitude Azimuth
Cosmos 2237 Rocket 2.4 12:01:08 10° SW 12:06:37 49° WNW 12:12:07 10° NNE
ERS-2 3.1 12:06:26 10° NNW 12:08:24 17° WNW 12:10:21 10° WSW
Meteor 2-12 Rocket 4.5 12:02:24 10° N 12:08:32 84° W 12:14:40 10° S
SAR-Lupe-2 4.4 12:06:29 10° N 12:09:36 28° WNW 12:12:41 10° SW
CZ-4C R/B 3.6 12:04:37 10° NNW 12:11:51 60° NE 12:20:25 10° SE
Meteor 1-10 Rocket 4.3 12:06:41 10° NNW 12:12:32 76° W 12:18:13 10° S
Cosmos 2219 4.2 22:16:44 10° SW 22:22:07 47° WNW 22:27:34 10° NNE
Cosmos 2058 Rocket 3.2 22:19:10 10° S 22:23:36 82° W 22:28:02 10° N
Lacrosse 5 2.9 22:20:07 10° S 22:24:26 29° ESE 22:28:46 10° ENE
Cosmos 1812 3.6 22:22:15 10° SSE 22:25:25 28° E 22:28:35 10° NNE
COSMO-SKYMED 1 4.3 22:23:18 10° ENE 22:25:36 14° E 22:27:54 10° ESE
ATLAS 2AS CENTAUR R/B 4.0 22:20:45 10° NNW 22:25:39 20° NNE 22:30:24 10° ENE
[s.n.58448] 2.3 22:23:22 10° WNW 22:25:58 88° N 22:28:34 10° ESE
Tiangong 1.1 22:25:48 10° WSW 22:27:26 13° SSW 22:29:05 10° S
[s.n.58449] 2.2 22:25:23 10° WNW 22:27:55 89° NNE 22:30:25 10° ESE
SL-08 RB Rocket 4.1 22:24:21 10° S 22:28:47 71° WSW 22:33:17 10° NNW
ERS-2 2.0 22:25:55 10° S 22:28:48 65° WSW 22:31:42 10° NNW
[s.n.58459] 2.3 22:27:27 10° WNW 22:30:05 88° S 22:32:41 10° ESE
[s.n.58458] 2.4 22:28:11 10° WNW 22:30:48 88° SSW 22:33:26 10° ESE
[s.n.58447] 2.3 22:28:57 10° WNW 22:31:33 87° S 22:34:07 10° ESE
[s.n.58456] 2.4 22:29:03 10° WNW 22:31:40 87° S 22:34:17 10° ESE
[s.n.58457] 2.4 22:29:50 10° WNW 22:32:27 86° SSW 22:35:05 10° ESE
USA 307 3.0 22:29:05 10° NW 22:32:48 42° NNE 22:36:25 10° ESE
CZ-2C R/B 2.5 22:29:25 10° SSE 22:32:56 69° ENE 22:36:31 10° N
[s.n.58455] 2.4 22:30:38 10° WNW 22:33:16 86° SSW 22:35:53 10° ESE
[s.n.58454] 2.4 22:31:25 10° WNW 22:34:04 85° SSW 22:36:41 10° ESE
[s.n.58453] 2.4 22:32:15 10° WNW 22:34:53 84° SSW 22:37:30 10° ESE
[s.n.58452] 2.4 22:32:59 10° WNW 22:35:37 83° SSW 22:38:15 10° ESE
[s.n.58451] 2.4 22:33:48 10° WNW 22:36:27 82° S 22:39:04 10° ESE
Cosmos 2082 4.3 22:31:30 10° SW 22:37:00 58° WNW 22:42:34 10° NNE
[s.n.58450] 2.4 22:34:35 10° WNW 22:37:14 82° SSW 22:39:51 10° ESE
Cosmos 1437 Rocket 3.8 22:35:19 10° NNW 22:38:55 48° W 22:42:34 10° S
[s.n.58446] 2.5 22:36:59 10° WNW 22:39:37 79° SSW 22:42:15 10° ESE
[s.n.58445] 2.5 22:37:48 10° WNW 22:40:27 79° SSW 22:43:05 10° ESE
[s.n.58444] 2.5 22:38:37 10° WNW 22:41:16 78° SSW 22:43:54 10° ESE
AQUARIUS 4.3 22:37:42 10° SE 22:41:58 48° ENE 22:46:17 10° N
[s.n.58443] 2.5 22:39:23 10° WNW 22:42:02 77° SSW 22:44:41 10° ESE
[s.n.58442] 2.5 22:40:16 10° WNW 22:42:54 76° SSW 22:45:33 10° ESE
[s.n.58441] 2.5 22:41:06 10° WNW 22:43:45 75° SSW 22:46:23 10° ESE
[s.n.58440] 2.5 22:41:51 10° WNW 22:44:30 75° SSW 22:47:09 10° ESE
SAR-Lupe-2 4.1 22:41:23 10° S 22:44:55 64° WSW 22:48:30 10° NNW
Cosmos 1818 3.8 22:39:52 10° SSW 22:45:08 55° ESE 22:50:28 10° NE
[s.n.58439] 2.5 22:42:41 10° WNW 22:45:21 74° SSW 22:47:59 10° ESE
[s.n.58437] 2.6 22:43:29 10° WNW 22:46:08 73° SSW 22:48:47 10° ESE
YAOGAN 11 4.5 22:41:39 10° N 22:46:11 72° WNW 22:50:42 10° SSW
[s.n.58438] 2.6 22:44:16 10° WNW 22:46:56 72° SSW 22:49:35 10° ESE
Meteor 1-25 Rocket 4.5 22:45:17 10° N 22:50:40 44° ENE 22:55:58 10° SSE
Cosmos 1933 4.3 22:48:03 10° SE 22:51:21 25° E 22:54:39 10° NE
Cosmos 1666 2.7 22:48:51 10° N 22:52:23 76° W 22:55:54 10° S
ATLAS CENTAUR R/B 2.9 22:48:37 10° NW 22:53:07 60° NE 23:01:49 10° SE
USA 306 1.1 22:53:26 10° NW 22:55:35 78° SW 22:57:38 10° SE
Cosmos 2026 Rocket 4.4 22:53:38 10° SSE 22:59:27 43° E 23:05:22 10° NNE
Meteor 1-31 Rocket 2.6 22:57:04 10° SSE 23:00:45 87° ENE 23:04:28 10° NNW
USA 305 2.6 22:58:25 10° NW 23:02:13 57° NE 23:05:45 11° ESE
Cosmos 1844 Rocket 3.1 22:57:24 10° S 23:02:33 40° ESE 23:07:07 13° NE
Cosmos 2263 Rocket 3.3 22:57:24 10° SW 23:02:37 41° WNW 23:07:53 10° N
CORIOLIS 4.3 22:59:04 10° SSE 23:04:24 81° WSW 23:09:48 10° NNW
USA 234 3.3 22:59:38 12° NE 23:05:44 79° SE 23:12:17 10° SW
Cosmos 1140 Rocket 3.4 23:05:03 10° NNW 23:10:15 80° ENE 23:15:23 10° SSE
ADEOS 4.2 23:07:04 10° SE 23:11:38 32° ENE 23:16:13 10° N
Cosmos 2227 4.3 23:06:10 10° SSW 23:11:56 82° WNW 23:17:43 10° NNE
SKYMED 2 3.8 23:09:49 10° NNE 23:14:00 45° E 23:18:10 10° S
Nadezhda 4 Rocket 4.2 23:10:53 10° SSW 23:17:01 72° W 23:23:09 10° N
Cosmos 1092 Rocket 4.0 23:11:11 10° S 23:17:12 61° E 23:23:14 10° NNE
Meteor 1-20 Rocket 4.2 23:12:32 10° N 23:18:09 89° W 23:23:50 10° S
CBERS 1 LM4 rocket 4.4 23:15:11 10° SSE 23:19:53 56° ENE 23:24:31 10° N
Cosmos 1782 2.6 23:16:21 10° S 23:20:13 66° E 23:23:56 11° NNE
RESURS DK-1 4.2 23:17:47 10° N 23:19:08 15° NNE 23:19:08 15° NNE
Cosmos 192 4.3 23:17:02 10° S 23:21:50 60° ESE 23:25:33 17° NNE
SL-08 R/B 3.6 23:22:27 19° NE 23:25:26 43° E 23:29:52 10° S
Cosmos 1603 3.6 23:22:30 10° NNW 23:28:12 80° ENE 23:33:50 10° SSE
Cosmos 1812 Rocket 4.1 23:24:04 10° SSW 23:28:20 60° W 23:32:39 10° N
Helios 1A 3.1 23:24:54 10° N 23:29:03 75° WNW 23:33:11 10° SSW
SL-8 R/B 3.7 23:24:28 10° WNW 23:29:15 79° SSW 23:32:50 18° SE
ISS -1.8 23:29:40 10° WNW 23:32:37 29° SW 23:35:34 10° SSE
JB-3 4.3 23:32:56 33° NE 23:34:24 55° E 23:38:07 10° S
CZ-4B R/B 3.5 23:30:56 10° SSE 23:36:01 81° WSW 23:41:00 10° NNW
H-2A R/B 3.8 23:35:02 10° SSW 23:37:11 16° S 23:40:40 10° SE
Cosmos 676 Rocket 4.4 23:35:38 10° N 23:40:33 37° ENE 23:41:13 36° E
Meteor 2-17 Rocket 4.5 23:37:46 10° S 23:43:56 85° W 23:50:06 10° N
SL-4 R/B 4.0 23:42:53 10° SSE 23:43:13 11° SSE 23:43:13 11° SSE
NOAA 6 4.0 23:40:54 10° SSE 23:46:02 85° WSW 23:51:12 10° NNW
Cosmos 1943 4.3 23:46:19 10° NW 23:51:39 45° WSW 23:56:58 10° S
Cosmos 220 Rocket 3.8 23:48:20 10° NNW 23:52:38 74° ENE 23:54:30 32° SSE
